Two Harbors, MN

10:43 AM CDT on July 22, 2017 (GMT -0500)
Helgeson

Weather History for KTWM - October, 2011

Change the Weather History Date:

Monday, October 24, 2011

  Actual Average Record
Temperature  
Mean Temperature 40 °F -  
Max Temperature 51 °F 49 °F 71 °F (1963)
Min Temperature 30 °F 36 °F 18 °F (1960)
Degree Days  
Heating Degree Days 24    
Moisture  
Dew Point 29 °F    
Average Humidity 69    
Maximum Humidity 87    
Minimum Humidity 44    
Precipitation  
Precipitation 0.00 in - - ()
Sea Level Pressure  
Sea Level Pressure 29.92 in    
Wind  
Wind Speed 4 mph (West)    
Max Wind Speed 13 mph    
Max Gust Speed -    
Visibility 10 miles    
Events      
Averages and records for this station are not official NWS values.
T = Trace of Precipitation, MM = Missing Value Source: NWS Daily Summary

Daily Weather History Graph

Daily Weather History Graph

Search for Another Location

Airport or City:

Trip Planner

Search our weather history database for the weather conditions in past years. The results will help you decide how hot, cold, wet, or windy it might be!

Date:

Astronomy

Oct. 24, 2011 Rise Set
Actual Time 7:37 AM CDT 6:03 PM CDT
Civil Twilight 7:06 AM CDT 6:35 PM CDT
Nautical Twilight 6:30 AM CDT 7:10 PM CDT
Astronomical Twilight 5:55 AM CDT 7:45 PM CDT
Moon 4:49 AM CDT (10/24) 4:34 PM CDT (10/24)
Length of Visible Light 11h 28m
Length of Day
10h 26m
Waning Crescent, 7% of the Moon is Illuminated
Oct 24
Waning Crescent
Oct 26
New
Nov 2
First Quarter
Nov 10
Full
Nov 18
Last Quarter

Hourly Weather History & Observations

Time (CDT) Temp. Windchill Dew Point Humidity Pressure Visibility Wind Dir Wind Speed Gust Speed Precip Events Conditions
12:13 AM 39.2 °F 37.0 °F 35.6 °F 87% 29.80 in 10.0 mi West 3.5 mph - N/A   Mostly Cloudy
12:32 AM 39.2 °F 37.0 °F 33.8 °F 81% 29.80 in 10.0 mi West 3.5 mph - N/A   Mostly Cloudy
12:53 AM 39.2 °F 35.9 °F 33.8 °F 81% 29.81 in 10.0 mi West 4.6 mph - N/A   Scattered Clouds
1:12 AM 37.4 °F 33.8 °F 33.8 °F 87% 29.81 in 10.0 mi West 4.6 mph - N/A   Scattered Clouds
1:32 AM 37.4 °F 34.9 °F 32.0 °F 81% 29.82 in 10.0 mi West 3.5 mph - N/A   Clear
1:53 AM 35.6 °F 32.8 °F 30.2 °F 81% 29.82 in 10.0 mi WSW 3.5 mph - N/A   Clear
2:12 AM 33.8 °F - 28.4 °F 81% 29.83 in 10.0 mi Calm Calm - N/A   Clear
2:32 AM 33.8 °F - 28.4 °F 81% 29.83 in 10.0 mi Calm Calm - N/A   Clear
2:53 AM 32.0 °F 28.7 °F 26.6 °F 80% 29.83 in 10.0 mi SSW 3.5 mph - N/A   Clear
3:12 AM 32.0 °F 28.7 °F 28.4 °F 87% 29.84 in 10.0 mi SW 3.5 mph - N/A   Clear
3:32 AM 32.0 °F 28.7 °F 26.6 °F 80% 29.84 in 10.0 mi SW 3.5 mph - N/A   Clear
3:53 AM 33.8 °F - 28.4 °F 81% 29.84 in 10.0 mi Calm Calm - N/A   Clear
4:13 AM 32.0 °F - 26.6 °F 80% 29.85 in 10.0 mi Calm Calm - N/A   Clear
4:32 AM 32.0 °F - 26.6 °F 80% 29.85 in 10.0 mi Calm Calm - N/A   Clear
4:53 AM 32.0 °F - 26.6 °F 80% 29.86 in 10.0 mi Calm Calm - N/A   Clear
5:12 AM 32.0 °F - 26.6 °F 80% 29.86 in 10.0 mi Calm Calm - N/A   Clear
5:32 AM 30.2 °F 26.7 °F 26.6 °F 86% 29.88 in 10.0 mi WSW 3.5 mph - N/A   Clear
6:12 AM 32.0 °F - 26.6 °F 80% 29.89 in 10.0 mi Calm Calm - N/A   Clear
6:33 AM 30.2 °F 24.3 °F 26.6 °F 86% 29.89 in 10.0 mi WSW 5.8 mph - N/A   Clear
6:53 AM 30.2 °F 24.3 °F 24.8 °F 80% 29.90 in 10.0 mi WSW 5.8 mph - N/A   Clear
7:12 AM 30.2 °F 26.7 °F 24.8 °F 80% 29.91 in 10.0 mi West 3.5 mph - N/A   Clear
7:33 AM 30.2 °F 26.7 °F 26.6 °F 86% 29.91 in 10.0 mi West 3.5 mph - N/A   Clear
7:53 AM 30.2 °F - 24.8 °F 80% 29.92 in 10.0 mi Calm Calm - N/A   Clear
8:12 AM 32.0 °F - 26.6 °F 80% 29.93 in 10.0 mi Calm Calm - N/A   Clear
8:33 AM 33.8 °F 30.8 °F 28.4 °F 81% 29.94 in 10.0 mi WNW 3.5 mph - N/A   Clear
8:53 AM 33.8 °F 29.6 °F 28.4 °F 81% 29.95 in 10.0 mi West 4.6 mph - N/A   Clear
9:12 AM 35.6 °F - 28.4 °F 75% 29.94 in 10.0 mi Calm Calm - N/A   Clear
9:33 AM 37.4 °F 34.9 °F 30.2 °F 75% 29.96 in 10.0 mi NW 3.5 mph - N/A   Clear
9:52 AM 37.4 °F 32.1 °F 30.2 °F 75% 29.95 in 10.0 mi NW 6.9 mph - N/A   Clear
10:13 AM 39.2 °F 35.9 °F 30.2 °F 70% 29.96 in 10.0 mi NW 4.6 mph - N/A   Clear
10:33 AM 39.2 °F 37.0 °F 30.2 °F 70% 29.96 in 10.0 mi NW 3.5 mph - N/A   Clear
10:52 AM 41.0 °F 37.1 °F 32.0 °F 70% 29.97 in 10.0 mi West 5.8 mph - N/A   Clear
11:13 AM 42.8 °F 40.1 °F 32.0 °F 66% 29.97 in 10.0 mi WNW 4.6 mph - N/A   Clear
11:32 AM 42.8 °F 38.6 °F 32.0 °F 66% 29.97 in 10.0 mi West 6.9 mph - N/A   Clear
11:52 AM 44.6 °F 41.4 °F 32.0 °F 61% 29.97 in 10.0 mi West 5.8 mph - N/A   Clear
12:13 PM 44.6 °F 40.7 °F 32.0 °F 61% 29.97 in 10.0 mi West 6.9 mph - N/A   Clear
12:32 PM 46.4 °F 43.5 °F 32.0 °F 57% 29.97 in 10.0 mi WNW 5.8 mph - N/A   Clear
12:52 PM 46.4 °F 44.3 °F 32.0 °F 57% 29.97 in 10.0 mi WNW 4.6 mph - N/A   Clear
1:13 PM 48.2 °F - 32.0 °F 54% 29.96 in 10.0 mi NW 6.9 mph - N/A   Clear
1:32 PM 48.2 °F - 32.0 °F 54% 29.96 in 10.0 mi West 9.2 mph - N/A   Clear
1:52 PM 48.2 °F - 32.0 °F 54% 29.96 in 10.0 mi West 5.8 mph - N/A   Clear
2:13 PM 48.2 °F - 32.0 °F 54% 29.96 in 10.0 mi West 6.9 mph - N/A   Clear
2:33 PM 50.0 °F - 32.0 °F 50% 29.96 in 10.0 mi WNW 4.6 mph - N/A   Scattered Clouds
2:52 PM 50.0 °F - 30.2 °F 47% 29.96 in 10.0 mi West 12.7 mph - N/A   Scattered Clouds
3:13 PM 51.8 °F - 30.2 °F 44% 29.96 in 10.0 mi West 8.1 mph - N/A   Clear
3:32 PM 51.8 °F - 30.2 °F 44% 29.96 in 10.0 mi West 6.9 mph - N/A   Clear
3:52 PM 51.8 °F - 30.2 °F 44% 29.96 in 10.0 mi WNW 5.8 mph - N/A   Clear
4:12 PM 51.8 °F - 30.2 °F 44% 29.97 in 10.0 mi NW 5.8 mph - N/A   Clear
4:32 PM 51.8 °F - 30.2 °F 44% 29.97 in 10.0 mi NW 3.5 mph - N/A   Clear
4:53 PM 48.2 °F - 28.4 °F 46% 29.98 in 10.0 mi WNW 5.8 mph - N/A   Scattered Clouds
5:12 PM 48.2 °F - 28.4 °F 46% 29.98 in 10.0 mi Calm Calm - N/A   Clear
5:53 PM 46.4 °F - 28.4 °F 50% 29.99 in 10.0 mi Calm Calm - N/A   Clear
6:13 PM 42.8 °F 41.1 °F 28.4 °F 57% 29.99 in 10.0 mi WSW 3.5 mph - N/A   Clear
6:32 PM 42.8 °F 41.1 °F 28.4 °F 57% 30.00 in 10.0 mi West 3.5 mph - N/A   Clear
6:53 PM 41.0 °F - 28.4 °F 61% 30.00 in 10.0 mi Calm Calm - N/A   Clear
7:12 PM 41.0 °F 39.0 °F 28.4 °F 61% 30.01 in 10.0 mi WNW 3.5 mph - N/A   Clear
7:32 PM 39.2 °F - 28.4 °F 65% 30.01 in 10.0 mi Calm Calm - N/A   Clear
7:53 PM 39.2 °F - 28.4 °F 65% 30.01 in 10.0 mi Calm Calm - N/A   Clear
8:13 PM 39.2 °F - 28.4 °F 65% 30.02 in 10.0 mi Calm Calm - N/A   Clear
8:32 PM 39.2 °F 37.0 °F 28.4 °F 65% 30.02 in 10.0 mi NW 3.5 mph - N/A   Clear
9:12 PM 37.4 °F - 28.4 °F 70% 30.02 in 10.0 mi Calm Calm - N/A   Clear
9:32 PM 37.4 °F - 28.4 °F 70% 30.03 in 10.0 mi Calm Calm - N/A   Clear
9:53 PM 39.2 °F - 26.6 °F 61% 30.03 in 10.0 mi Calm Calm - N/A   Clear
10:12 PM 39.2 °F - 26.6 °F 61% 30.04 in 10.0 mi Calm Calm - N/A   Clear
10:32 PM 35.6 °F - 28.4 °F 75% 30.04 in 10.0 mi Calm Calm - N/A   Clear
10:53 PM 35.6 °F - 28.4 °F 75% 30.05 in 10.0 mi Calm Calm - N/A   Clear
11:13 PM 35.6 °F - 28.4 °F 75% 30.05 in 10.0 mi Calm Calm - N/A   Clear
11:32 PM 37.4 °F 34.9 °F 28.4 °F 70% 30.05 in 10.0 mi North 3.5 mph - N/A   Clear
11:53 PM 39.2 °F 35.9 °F 26.6 °F 61% 30.05 in 10.0 mi North 4.6 mph - N/A   Clear